DW3753 Weather Reports


Display with metric or nautical units.
time (UTC)temp
F
wind
direction
speed
MPH
gust
MPH
rain 1hr
in
rain 24hr
in
rain mn
in
humidity
%
barometer
mb
20260504172618 75 150 13.0 28.0 0.00 0.00 0.00 62 1009.0
20260504171619 74 193 12.0 23.0 0.00 0.00 0.00 62 1009.1
20260504170617 74 188 11.0 20.0 0.00 0.00 0.00 61 1009.4
20260504150619 69 215 13.0 27.0 0.00 0.00 0.00 67 1010.3
20260504140618 66 138 10.0 22.0 0.00 0.00 0.00 71 1010.5
20260504130620 64 166 10.0 19.0 0.00 0.00 0.00 75 1010.7
20260504110619 61 178 9.0 14.0 0.00 0.00 0.00 74 1010.5
20260504081615 63 197 9.0 15.0 0.00 0.00 0.00 65 1011.6
20260504080614 63 185 8.0 17.0 0.00 0.00 0.00 65 1011.6
20260504050612 67 187 3.0 7.0 0.00 0.00 0.00 58 1013.4
20260504045613 67 178 3.0 9.0 0.00 0.00 0.00 57 1013.5
20260504044613 68 167 4.0 9.0 0.00 0.00 0.00 56 1013.6
20260504043613 68 160 4.0 10.0 0.00 0.00 0.00 55 1013.7
20260504042609 68 154 5.0 11.0 0.00 0.00 0.00 55 1013.7
20260504042041 69 184 5.0 10.0 0.00 0.00 0.00 54 1013.8
20260504040606 69 162 5.0 12.0 0.00 0.00 0.00 53 1013.9
20260504035605 69 173 5.0 11.0 0.00 0.00 0.00 52 1013.9
20260504034605 69 182 5.0 12.0 0.00 0.00 0.00 52 1013.8
20260504033607 70 194 5.0 12.0 0.00 0.00 0.00 51 1013.8
20260504033055 70 162 6.0 12.0 0.00 0.00 0.00 51 1013.7
20260504031606 70 186 6.0 13.0 0.00 0.00 0.00 50 1013.6
20260504030607 70 147 6.0 13.0 0.00 0.00 0.00 50 1013.6
20260504025601 71 183 6.0 14.0 0.00 0.00 0.00 48 1013.6
20260504024601 71 175 5.0 13.0 0.00 0.00 0.00 48 1013.6
20260504023601 71 184 6.0 14.0 0.00 0.00 0.00 47 1013.5
20260504022601 71 159 6.0 12.0 0.00 0.00 0.00 47 1013.3
20260504021601 72 175 6.0 15.0 0.00 0.00 0.00 46 1013.2
20260504020601 72 182 6.0 13.0 0.00 0.00 0.00 45 1013.3
20260504015600 73 150 7.0 15.0 0.00 0.00 0.00 44 1013.3
20260504014601 73 161 7.0 14.0 0.00 0.00 0.00 43 1013.3
20260504013602 73 191 7.0 20.0 0.00 0.00 0.00 42 1013.3
20260504012601 74 160 7.0 19.0 0.00 0.00 0.00 43 1013.0
20260504011601 74 173 7.0 17.0 0.00 0.00 0.00 42 1013.1
20260504010601 75 187 7.0 13.0 0.00 0.00 0.00 41 1012.9
20260504010038 75 142 6.0 15.0 0.00 0.00 0.00 40 1012.8
20260504004600 76 155 5.0 14.0 0.00 0.00 0.00 40 1012.8
20260504003600 77 142 5.0 13.0 0.00 0.00 0.00 39 1012.9
20260504002558 78 174 7.0 12.0 0.00 0.00 0.00 39 1012.9
20260504001602 78 184 7.0 16.0 0.00 0.00 0.00 37 1013.0
20260504000557 78 155 9.0 17.0 0.00 0.00 0.00 37 1013.1
20260504000057 79 165 8.0 17.0 0.00 0.00 0.00 36 1013.1
20260503234558 79 178 8.0 16.0 0.00 0.00 0.00 36 1013.2
20260503233559 79 186 9.0 16.0 0.00 0.00 0.00 34 1013.2
20260503232557 80 163 7.0 13.0 0.00 0.00 0.00 36 1013.3
20260503231557 80 169 7.0 16.0 0.00 0.00 0.00 35 1013.4
20260503230559 80 157 9.0 16.0 0.00 0.00 0.00 36 1013.5
20260503225554 79 200 11.0 18.0 0.00 0.00 0.00 35 1013.7
20260503224553 80 189 8.0 16.0 0.00 0.00 0.00 35 1013.7
20260503223557 80 198 9.0 17.0 0.00 0.00 0.00 35 1013.7
20260503222613 80 206 9.0 19.0 0.00 0.00 0.00 33 1013.8
20260503221556 80 213 9.0 17.0 0.00 0.00 0.00 34 1013.9
20260503220553 80 221 10.0 15.0 0.00 0.00 0.00 32 1014.0
20260503215555 80 198 9.0 17.0 0.00 0.00 0.00 31 1014.1
20260503214555 81 175 8.0 17.0 0.00 0.00 0.00 34 1014.2
20260503213553 80 192 9.0 17.0 0.00 0.00 0.00 34 1014.4
20260503212554 81 167 11.0 19.0 0.00 0.00 0.00 33 1014.6
20260503211553 81 149 6.0 16.0 0.00 0.00 0.00 34 1014.7
20260503211038 80 200 9.0 16.0 0.00 0.00 0.00 35 1014.9
20260503210031 80 195 12.0 19.0 0.00 0.00 0.00 34 1015.1
20260503204557 80 194 8.0 20.0 0.00 0.00 0.00 33 1015.3
20260503203552 80 217 11.0 19.0 0.00 0.00 0.00 35 1015.6
20260503202552 80 198 9.0 19.0 0.00 0.00 0.00 35 1015.7
20260503201551 80 207 9.0 17.0 0.00 0.00 0.00 35 1015.9
20260503200553 79 219 8.0 18.0 0.00 0.00 0.00 35 1016.0
20260503200532 80 174 9.0 19.0 0.00 0.00 0.00 34 1016.1
20260503194554 80 136 9.0 15.0 0.00 0.00 0.00 35 1016.3
20260503193552 79 223 8.0 13.0 0.00 0.00 0.00 36 1016.5
20260503193517 79 207 8.0 17.0 0.00 0.00 0.00 36 1016.7
20260503191554 79 225 8.0 16.0 0.00 0.00 0.00 36 1016.9
20260503190552 79 165 8.0 14.0 0.00 0.00 0.00 38 1017.0
20260503185552 78 217 8.0 13.0 0.00 0.00 0.00 41 1017.1
20260503184552 78 198 9.0 15.0 0.00 0.00 0.00 40 1017.3
20260503183553 78 219 6.0 11.0 0.00 0.00 0.00 45 1017.4
20260503182553 77 232 8.0 14.0 0.00 0.00 0.00 43 1017.5
20260503181549 77 219 8.0 14.0 0.00 0.00 0.00 46 1017.8
20260503180552 77 210 9.0 14.0 0.00 0.00 0.00 46 1017.9
20260503180031 77 222 9.0 15.0 0.00 0.00 0.00 44 1018.2
20260503174547 76 227 8.0 13.0 0.00 0.00 0.00 47 1018.4
20260503174037 76 199 8.0 16.0 0.00 0.00 0.00 48 1018.5